Regional Weather Roundup
Issued by NWS Little Rock, AR

Home | Current Version | Previous Version | Graphics & Text | Print | Product List | Glossary On
Versions: 1 2 3 4 5 6 7 8 9 10 11 12 13 14 15 16 17 18 19 20 21 22 23 24 25 26 27 28 29 30 31 32 33 34 35 36 37 38 39 40 41 42 43 44 45 46 47
000
ASUS44 KLZK 021205
RWRLZK

WEATHER ROUNDUP FOR ARKANSAS
NATIONAL WEATHER SERVICE LITTLE ROCK AR
700 AM CDT WED SEP 02 2015

NOTE: "FAIR" INDICATES FEW OR NO CLOUDS BELOW 12,000 FEET WITH NO
SIGNIFICANT WEATHER AND/OR OBSTRUCTIONS TO VISIBILITY.

ARZ001-003-010-029-021300-
NORTHWEST ARKANSAS

CITY           SKY/WX    TMP DP  RH WIND       PRES   REMARKS
FAYETTEVILLE   CLEAR     64  64 100 CALM      30.11S
6HR MIN TEMP:  64; 6HR MAX TEMP:  69;

FORT SMITH     CLEAR     69  66  90 E3        30.08R
6HR MIN TEMP:  69; 6HR MAX TEMP:  74;

HARRISON       CLEAR     65  63  93 SE3       30.13R
6HR MIN TEMP:  64; 6HR MAX TEMP:  71;

BENTONVILLE    CLEAR     68  63  83 CALM      30.12R
6HR MIN TEMP:  66; 6HR MAX TEMP:  72;

ROGERS         CLEAR     69  65  86 SE6       30.12R
6HR MIN TEMP:  68; 6HR MAX TEMP:  72;

SILOAM SPGS    CLEAR     68  61  77 SE3       30.10R
6HR MIN TEMP:  68; 6HR MAX TEMP:  72;

HIGHFILL       CLEAR     68  66  93 CALM      30.11R
6HR MIN TEMP:  67; 6HR MAX TEMP:  73;

SPRINGDALE     PTCLDY    70  66  88 CALM      30.13R
$$

ARZ004-005-016-021300-
NORTH CENTRAL ARKANSAS

CITY           SKY/WX    TMP DP  RH WIND       PRES   REMARKS
BATESVILLE     CLEAR     70  66  88 NW3       30.11R
6HR MIN TEMP:  66; 6HR MAX TEMP:  72;

FLIPPIN        CLEAR     64  59  82 CALM      30.10R
6HR MIN TEMP:  64; 6HR MAX TEMP:  70;

MTN HOME       CLEAR     67  66  97 CALM      30.11R FOG
6HR MIN TEMP:  67; 6HR MAX TEMP:  72;

$$

ARZ040-041-021300-
WEST CENTRAL ARKANSAS

CITY           SKY/WX    TMP DP  RH WIND       PRES   REMARKS
MENA           CLEAR     66  64  94 CALM      30.12R
MOUNT IDA      CLEAR     65  64  97 CALM      30.08R FOG
6HR MIN TEMP:  65; 6HR MAX TEMP:  69;

$$

ARZ009-017-025-026-028-021300-
NORTHEAST ARKANSAS

CITY           SKY/WX    TMP DP  RH WIND       PRES   REMARKS
JONESBORO      CLEAR     67  67 100 CALM      30.11R FOG
6HR MIN TEMP:  67; 6HR MAX TEMP:  73;

NEWPORT        CLEAR     70  70 100 CALM      30.11R FOG
6HR MIN TEMP:  69; 6HR MAX TEMP:  74;

WALNUT RIDGE   CLEAR     68  64  88 CALM      30.11R
6HR MIN TEMP:  68; 6HR MAX TEMP:  73;

BLYTHEVILLE    CLEAR     72  72 100 E3        30.12R
6HR MIN TEMP:  71; 6HR MAX TEMP:  75;

$$

ARZ022-023-033-042-044-021300-
CENTRAL ARKANSAS

CITY           SKY/WX    TMP DP  RH WIND       PRES   REMARKS
LITTLE ROCK    PTCLDY    72  68  87 CALM      30.09R
6HR MIN TEMP:  72; 6HR MAX TEMP:  76;

N LITTLE ROCK    N/A     74  69  85 NW3       30.09R
6HR MIN TEMP:  72; 6HR MAX TEMP:  77;

JACKSONVILLE   CLEAR     68  67  96 CALM      30.09R
6HR MIN TEMP:  68; 6HR MAX TEMP:  75;

SEARCY         CLEAR     69  69 100 CALM      30.11R FOG
6HR MIN TEMP:  69; 6HR MAX TEMP:  73;

HOT SPRINGS    CLEAR     68  65  90 CALM      30.10R
6HR MIN TEMP:  68; 6HR MAX TEMP:  72;

RUSSELLVILLE   CLEAR     66  65  96 CALM      30.09R FOG
6HR MIN TEMP:  66; 6HR MAX TEMP:  70;

$$

ARZ036-021300-
EAST ARKANSAS

CITY           SKY/WX    TMP DP  RH WIND       PRES   REMARKS
WEST MEMPHIS   MOCLDY    72  72 100 CALM      30.09R
6HR MIN TEMP:  70; 6HR MAX TEMP:  75;

$$

ARZ050-053-066-070-073-021300-
SOUTHWEST ARKANSAS

CITY           SKY/WX    TMP DP  RH WIND       PRES   REMARKS
ARKADELPHIA    FAIR      68  68 100 CALM      30.09R FOG
6HR MIN TEMP:  67; 6HR MAX TEMP:  69;

CAMDEN         MOCLDY    68  66  94 CALM      30.08R FOG
TEXARKANA      CLEAR     72  69  90 CALM      30.08R
6HR MIN TEMP:  70; 6HR MAX TEMP:  76;

EL DORADO      MOCLDY    72  69  90 CALM      30.08R
6HR MIN TEMP:  69; 6HR MAX TEMP:  72;

DE QUEEN       FOG       65  65 100 CALM      30.07R VSB 1/4
6HR MIN TEMP:  65; 6HR MAX TEMP:  71;

$$

ARZ056-057-069-021300-
SOUTHEAST ARKANSAS

CITY           SKY/WX    TMP DP  RH WIND       PRES   REMARKS
PINE BLUFF     MOCLDY    73  72  96 NW5       30.08R
6HR MIN TEMP:  70; 6HR MAX TEMP:  74;

STUTTGART      MOCLDY    72  66  83 NW3       30.09R
6HR MIN TEMP:  72; 6HR MAX TEMP:  79;

MONTICELLO     CLOUDY    74  73  97 CALM      30.07R
6HR MIN TEMP:  74; 6HR MAX TEMP:  77; 6HR PCP: TRACE;


$$




USA.gov is the U.S. government's official web portal to all federal, state and local government web resources and services.